Weather History for KPCZ - September, 2013

Change the Weather History Date:

Monday, September 16, 2013

  Actual Average Record
Temperature  
Mean Temperature 52 °F -  
Max Temperature 64 °F 69 °F 95 °F (1955)
Min Temperature 39 °F 48 °F 33 °F (1959)
Degree Days  
Heating Degree Days 14    
Growing Degree Days 2 (Base 50)    
Moisture  
Dew Point 41 °F    
Average Humidity 70    
Maximum Humidity 93    
Minimum Humidity 41    
Precipitation  
Precipitation 0.00 in - - ()
Sea Level Pressure  
Sea Level Pressure 30.38 in    
Wind  
Wind Speed 4 mph (NE)    
Max Wind Speed 8 mph    
Max Gust Speed -    
Visibility 10 miles    
Events      
Averages and records for this station are not official NWS values.
T = Trace of Precipitation, MM = Missing Value Source: NWS Daily Summary

Daily Weather History Graph

Daily Weather History Graph

Search for Another Location

Airport or City:

Trip Planner

Search our weather history database for the weather conditions in past years. The results will help you decide how hot, cold, wet, or windy it might be!

Date:

Astronomy

Sep. 16, 2013 Rise Set
Actual Time 6:36 AM CDT 7:04 PM CDT
Civil Twilight 6:07 AM CDT 7:33 PM CDT
Nautical Twilight 5:33 AM CDT 8:07 PM CDT
Astronomical Twilight 4:57 AM CDT 8:43 PM CDT
Moon 5:17 PM CDT (9/16) 3:16 AM CDT (9/16)
Length of Visible Light 13h 25m
Length of Day
12h 27m
Waxing Gibbous, 90% of the Moon is Illuminated
Sep 16
Waxing Gibbous
Sep 19
Full
Sep 26
Last Quarter
Oct 4
New
Oct 11
First Quarter

Hourly Weather History & Observations

Time (CDT) Temp. Windchill Dew Point Humidity Pressure Visibility Wind Dir Wind Speed Gust Speed Precip Events Conditions
12:15 AM 50.0 °F - 41.0 °F 71% 30.32 in 10.0 mi NE 5.8 mph - N/A   Overcast
12:35 AM 48.2 °F - 40.6 °F 75% 30.32 in 10.0 mi NNE 4.6 mph - N/A   Scattered Clouds
12:55 AM 47.3 °F - 40.1 °F 76% 30.33 in 10.0 mi North 3.5 mph - N/A   Clear
1:15 AM 46.4 °F - 40.6 °F 80% 30.33 in 10.0 mi Calm Calm - N/A   Clear
1:35 AM 45.1 °F - 41.0 °F 85% 30.33 in 10.0 mi Calm Calm - N/A   Clear
1:55 AM 44.1 °F - 40.6 °F 88% 30.34 in 10.0 mi Calm Calm - N/A   Clear
2:15 AM 43.2 °F 41.5 °F 39.9 °F 88% 30.34 in 10.0 mi NNW 3.5 mph - N/A   Clear
2:35 AM 42.4 °F - 39.7 °F 90% 30.34 in 10.0 mi Calm Calm - N/A   Clear
2:55 AM 41.7 °F 39.8 °F 38.8 °F 89% 30.35 in 10.0 mi NNW 3.5 mph - N/A   Clear
3:15 AM 41.5 °F 38.6 °F 39.4 °F 92% 30.35 in 10.0 mi NNW 4.6 mph - N/A   Clear
3:35 AM 41.2 °F 39.2 °F 39.2 °F 93% 30.35 in 10.0 mi NNW 3.5 mph - N/A   Clear
3:55 AM 41.2 °F 38.2 °F 39.0 °F 92% 30.35 in 10.0 mi NNW 4.6 mph - N/A   Clear
4:15 AM 41.0 °F 39.0 °F 38.7 °F 91% 30.35 in 10.0 mi NNW 3.5 mph - N/A   Clear
4:35 AM 40.3 °F 37.1 °F 38.1 °F 92% 30.35 in 10.0 mi NNW 4.6 mph - N/A   Clear
4:55 AM 40.6 °F 38.6 °F 38.3 °F 91% 30.36 in 10.0 mi NNW 3.5 mph - N/A   Clear
5:15 AM 39.9 °F 36.7 °F 37.6 °F 91% 30.36 in 10.0 mi North 4.6 mph - N/A   Clear
5:35 AM 40.3 °F 37.1 °F 37.8 °F 91% 30.37 in 10.0 mi NNW 4.6 mph - N/A   Clear
5:55 AM 39.6 °F 36.3 °F 37.4 °F 92% 30.38 in 10.0 mi North 4.6 mph - N/A   Clear
6:15 AM 40.3 °F 38.2 °F 37.9 °F 91% 30.38 in 10.0 mi North 3.5 mph - N/A   Clear
6:35 AM 39.4 °F 37.2 °F 37.0 °F 91% 30.39 in 10.0 mi NNW 3.5 mph - N/A   Clear
6:55 AM 39.6 °F - 37.4 °F 92% 30.40 in 10.0 mi Calm Calm - N/A   Clear
7:15 AM 40.3 °F 38.2 °F 37.9 °F 91% 30.41 in 10.0 mi North 3.5 mph - N/A   Clear
7:35 AM 41.9 °F 39.0 °F 39.4 °F 91% 30.41 in 10.0 mi North 4.6 mph - N/A   Clear
7:55 AM 43.5 °F 40.9 °F 39.9 °F 87% 30.41 in 10.0 mi North 4.6 mph - N/A   Clear
8:15 AM 44.8 °F 41.0 °F 39.6 °F 82% 30.41 in 10.0 mi North 6.9 mph - N/A   Clear
8:35 AM 46.4 °F 44.3 °F 40.5 °F 80% 30.42 in 10.0 mi North 4.6 mph - N/A   Clear
8:55 AM 48.2 °F - 41.2 °F 77% 30.43 in 10.0 mi NE 6.9 mph - N/A   Clear
9:15 AM 49.8 °F - 41.9 °F 74% 30.43 in 10.0 mi NNE 5.8 mph - N/A   Clear
9:35 AM 51.3 °F - 42.1 °F 71% 30.44 in 10.0 mi ENE 5.8 mph - N/A   Clear
9:55 AM 53.4 °F - 42.6 °F 67% 30.44 in 10.0 mi NE 4.6 mph - N/A   Clear
10:15 AM 54.1 °F - 43.0 °F 66% 30.44 in 10.0 mi ENE 5.8 mph - N/A   Clear
10:35 AM 55.4 °F - 42.6 °F 62% 30.44 in 10.0 mi NE 5.8 mph - N/A   Scattered Clouds
10:55 AM 54.5 °F - 42.4 °F 64% 30.44 in 10.0 mi ENE 5.8 mph - N/A   Scattered Clouds
11:15 AM 56.7 °F - 42.6 °F 59% 30.44 in 10.0 mi NNE 4.6 mph - N/A   Mostly Cloudy
11:35 AM 58.3 °F - 42.1 °F 55% 30.44 in 10.0 mi NE 5.8 mph - N/A   Mostly Cloudy
11:55 AM 57.9 °F - 40.3 °F 52% 30.43 in 10.0 mi East 6.9 mph - N/A   Scattered Clouds
12:15 PM 58.6 °F - 39.6 °F 49% 30.43 in 10.0 mi NE 4.6 mph - N/A   Clear
12:35 PM 59.4 °F - 39.4 °F 48% 30.43 in 10.0 mi ESE 4.6 mph - N/A   Clear
12:55 PM 59.9 °F - 41.2 °F 50% 30.43 in 10.0 mi NE 4.6 mph - N/A   Clear
1:15 PM 60.8 °F - 39.6 °F 46% 30.42 in 10.0 mi NE 8.1 mph - N/A   Clear
1:35 PM 61.3 °F - 40.1 °F 46% 30.42 in 10.0 mi SE 3.5 mph - N/A   Clear
1:55 PM 62.1 °F - 40.1 °F 44% 30.41 in 10.0 mi NE 5.8 mph - N/A   Clear
2:15 PM 62.6 °F - 40.8 °F 45% 30.40 in 10.0 mi NE 6.9 mph - N/A   Clear
2:35 PM 63.3 °F - 41.0 °F 44% 30.39 in 10.0 mi East 8.1 mph - N/A   Clear
2:55 PM 63.0 °F - 40.8 °F 44% 30.39 in 10.0 mi ENE 6.9 mph - N/A   Clear
3:15 PM 64.0 °F - 40.6 °F 42% 30.38 in 10.0 mi East 6.9 mph - N/A   Clear
3:35 PM 64.0 °F - 39.9 °F 41% 30.38 in 10.0 mi Calm Calm - N/A   Clear
3:55 PM 64.4 °F - 39.9 °F 41% 30.38 in 10.0 mi East 3.5 mph - N/A   Clear
4:15 PM 64.0 °F - 40.5 °F 42% 30.37 in 10.0 mi NE 4.6 mph - N/A   Clear
4:35 PM 64.0 °F - 40.1 °F 41% 30.37 in 10.0 mi NE 3.5 mph - N/A   Clear
4:55 PM 64.0 °F - 39.7 °F 41% 30.37 in 10.0 mi East 6.9 mph - N/A   Clear
5:15 PM 63.9 °F - 39.9 °F 41% 30.37 in 10.0 mi East 5.8 mph - N/A   Clear
5:35 PM 63.1 °F - 40.5 °F 43% 30.36 in 10.0 mi East 5.8 mph - N/A   Clear
5:55 PM 62.2 °F - 39.0 °F 42% 30.36 in 10.0 mi ENE 6.9 mph - N/A   Clear
6:15 PM 61.2 °F - 39.2 °F 44% 30.36 in 10.0 mi East 5.8 mph - N/A   Clear
6:35 PM 59.5 °F - 38.8 °F 46% 30.36 in 10.0 mi East 4.6 mph - N/A   Clear
6:55 PM 57.2 °F - 40.5 °F 54% 30.35 in 10.0 mi ENE 4.6 mph - N/A   Clear
7:15 PM 55.4 °F - 40.3 °F 57% 30.35 in 10.0 mi ENE 4.6 mph - N/A   Clear
7:35 PM 55.2 °F - 41.2 °F 59% 30.35 in 10.0 mi ENE 4.6 mph - N/A   Clear
7:55 PM 54.0 °F - 42.1 °F 64% 30.35 in 10.0 mi ENE 4.6 mph - N/A   Clear
8:15 PM 53.6 °F - 43.0 °F 67% 30.35 in 10.0 mi ENE 5.8 mph - N/A   Clear
8:35 PM 52.2 °F - 43.2 °F 71% 30.35 in 10.0 mi ENE 5.8 mph - N/A   Clear
8:55 PM 51.1 °F - 43.5 °F 75% 30.35 in 10.0 mi East 3.5 mph - N/A   Clear
9:15 PM 50.0 °F - 43.5 °F 78% 30.36 in 10.0 mi Calm Calm - N/A   Clear
9:35 PM 49.5 °F - 44.1 °F 82% 30.36 in 10.0 mi East 3.5 mph - N/A   Clear
9:55 PM 48.6 °F - 44.2 °F 85% 30.37 in 10.0 mi East 3.5 mph - N/A   Clear
10:15 PM 48.2 °F - 44.6 °F 87% 30.37 in 10.0 mi Calm Calm - N/A   Clear
10:35 PM 47.7 °F - 44.2 °F 88% 30.38 in 10.0 mi East 3.5 mph - N/A   Clear
10:55 PM 46.9 °F - 43.7 °F 88% 30.38 in 10.0 mi Calm Calm - N/A   Clear
11:15 PM 46.9 °F - 43.9 °F 89% 30.37 in 10.0 mi Calm Calm - N/A   Clear
11:35 PM 46.8 °F - 43.3 °F 88% 30.38 in 10.0 mi Calm Calm - N/A   Clear
11:55 PM 45.1 °F - 41.7 °F 88% 30.38 in 10.0 mi Calm Calm - N/A   Clear